Meteo pe oră la Daba Dora

Astăzi, 11 Aprilie, Duminică

Timp Temperatura Precipitaţii Vânt Presiune Umiditate
00:00 +22°C° 0 mm 5 m/s 680 mmHg 65%
01:00 +22°C° 0 mm 5 m/s 680 mmHg 69%
02:00 +22°C° 0 mm 4 m/s 680 mmHg 74%
03:00 +21°C° 0 mm 4 m/s 679 mmHg 77%
04:00 +21°C° 0 mm 3 m/s 680 mmHg 78%
05:00 +21°C° 0 mm 2 m/s 680 mmHg 79%
06:00 +22°C° 0 mm 1 m/s 681 mmHg 80%
07:00 +23°C° 0 mm 2 m/s 681 mmHg 70%
08:00 +25°C° 0 mm 2 m/s 682 mmHg 60%
09:00 +27°C° 0 mm 2 m/s 683 mmHg 50%
10:00 +28°C° 0 mm 3 m/s 683 mmHg 44%
11:00 +30°C° 0 mm 4 m/s 683 mmHg 39%
12:00 +33°C° 0 mm 4 m/s 683 mmHg 33%
13:00 +33°C° 0 mm 4 m/s 682 mmHg 33%
14:00 +34°C° 0 mm 4 m/s 682 mmHg 32%
15:00 +35°C° 0 mm 4 m/s 681 mmHg 32%
16:00 +34°C° 0 mm 4 m/s 681 mmHg 34%
17:00 +33°C° 0 mm 4 m/s 681 mmHg 36%
18:00 +32°C° 0 mm 4 m/s 681 mmHg 38%
19:00 +30°C° 0 mm 4 m/s 681 mmHg 43%
20:00 +28°C° 0 mm 5 m/s 681 mmHg 48%
21:00 +26°C° 0 mm 5 m/s 681 mmHg 53%
22:00 +26°C° 0 mm 5 m/s 681 mmHg 58%
23:00 +25°C° 0 mm 5 m/s 681 mmHg 63%

Mâine, 12 Aprilie, Luni

Timp Temperatura Precipitaţii Vânt Presiune Umiditate
00:00 +23°C° 0 mm 5 m/s 681 mmHg 67%
01:00 +23°C° 0 mm 4 m/s 681 mmHg 70%
02:00 +22°C° 0 mm 3 m/s 681 mmHg 73%
03:00 +23°C° 0 mm 2 m/s 681 mmHg 75%
04:00 +23°C° 0 mm 2 m/s 681 mmHg 77%
05:00 +23°C° 0 mm 1 m/s 682 mmHg 78%
06:00 +22°C° 0 mm 1 m/s 682 mmHg 79%
07:00 +24°C° 0 mm 2 m/s 683 mmHg 71%
08:00 +25°C° 0 mm 2 m/s 684 mmHg 63%
09:00 +27°C° 0 mm 2 m/s 684 mmHg 55%
10:00 +28°C° 0 mm 3 m/s 684 mmHg 49%
11:00 +30°C° 0 mm 3 m/s 684 mmHg 43%
12:00 +32°C° 0 mm 4 m/s 684 mmHg 38%
13:00 +33°C° 0 mm 4 m/s 683 mmHg 36%
14:00 +34°C° 0 mm 4 m/s 682 mmHg 34%
15:00 +34°C° 0 mm 4 m/s 681 mmHg 33%
16:00 +33°C° 0 mm 4 m/s 681 mmHg 35%
17:00 +33°C° 0 mm 4 m/s 681 mmHg 37%
18:00 +32°C° 0 mm 4 m/s 681 mmHg 39%
19:00 +29°C° 0 mm 4 m/s 681 mmHg 45%
20:00 +28°C° 0 mm 4 m/s 682 mmHg 52%
21:00 +26°C° 0 mm 5 m/s 682 mmHg 58%
22:00 +25°C° 0 mm 5 m/s 682 mmHg 62%
23:00 +25°C° 0 mm 4 m/s 682 mmHg 66%

Poimâine, 13 Aprilie, Marţi

Timp Temperatura Precipitaţii Vânt Presiune Umiditate
00:00 +23°C° 0 mm 4 m/s 681 mmHg 71%
01:00 +23°C° 0 mm 4 m/s 681 mmHg 73%
02:00 +22°C° 0 mm 3 m/s 681 mmHg 75%
03:00 +22°C° 0 mm 3 m/s 681 mmHg 77%
04:00 +23°C° 0 mm 2 m/s 681 mmHg 79%
05:00 +21°C° 0 mm 2 m/s 681 mmHg 81%
06:00 +21°C° 0 mm 2 m/s 682 mmHg 83%
07:00 +23°C° 0 mm 2 m/s 682 mmHg 74%
08:00 +25°C° 0 mm 2 m/s 683 mmHg 64%
09:00 +26°C° 0 mm 2 m/s 684 mmHg 55%
10:00 +28°C° 0 mm 2 m/s 684 mmHg 48%
11:00 +30°C° 0 mm 3 m/s 684 mmHg 41%
12:00 +33°C° 0 mm 3 m/s 684 mmHg 34%
13:00 +34°C° 0 mm 3 m/s 683 mmHg 32%
14:00 +35°C° 0 mm 3 m/s 682 mmHg 31%
15:00 +35°C° 0 mm 3 m/s 682 mmHg 29%
16:00 +35°C° 0 mm 4 m/s 681 mmHg 30%
17:00 +34°C° 0 mm 4 m/s 681 mmHg 31%
18:00 +34°C° 0 mm 4 m/s 681 mmHg 32%
19:00 +32°C° 0 mm 4 m/s 681 mmHg 40%
20:00 +29°C° 0 mm 4 m/s 682 mmHg 47%
21:00 +27°C° 0 mm 5 m/s 682 mmHg 54%
22:00 +26°C° 0 mm 5 m/s 682 mmHg 59%
23:00 +25°C° 0 mm 5 m/s 682 mmHg 64%

14 Aprilie, Miercuri

Timp Temperatura Precipitaţii Vânt Presiune Umiditate
00:00 +23°C° 0 mm 5 m/s 682 mmHg 69%
01:00 +23°C° 0 mm 4 m/s 681 mmHg 71%
02:00 +22°C° 0 mm 3 m/s 681 mmHg 73%
03:00 +23°C° 0 mm 2 m/s 681 mmHg 75%
04:00 +23°C° 0 mm 2 m/s 681 mmHg 75%
05:00 +23°C° 0 mm 1 m/s 682 mmHg 75%
06:00 +23°C° 0 mm 1 m/s 682 mmHg 75%
07:00 +24°C° 0 mm 1 m/s 683 mmHg 69%
08:00 +25°C° 0 mm 1 m/s 683 mmHg 62%
09:00 +27°C° 0 mm 1 m/s 684 mmHg 55%
10:00 +28°C° 0 mm 1 m/s 684 mmHg 49%
11:00 +30°C° 0 mm 1 m/s 684 mmHg 42%
12:00 +32°C° 0 mm 1 m/s 683 mmHg 36%
13:00 +34°C° 0 mm 2 m/s 683 mmHg 33%
14:00 +35°C° 0 mm 3 m/s 682 mmHg 29%
15:00 +36°C° 0 mm 3 m/s 681 mmHg 25%
16:00 +36°C° 0 mm 3 m/s 681 mmHg 27%
17:00 +35°C° 0 mm 3 m/s 681 mmHg 28%
18:00 +34°C° 0 mm 3 m/s 681 mmHg 29%
19:00 +33°C° 0 mm 4 m/s 681 mmHg 36%
20:00 +30°C° 0 mm 4 m/s 681 mmHg 43%
21:00 +28°C° 0 mm 4 m/s 681 mmHg 50%
22:00 +27°C° 0 mm 3 m/s 681 mmHg 55%
23:00 +26°C° 0 mm 3 m/s 682 mmHg 59%

15 Aprilie, Joi

Timp Temperatura Precipitaţii Vânt Presiune Umiditate
00:00 +25°C° 0 mm 3 m/s 682 mmHg 63%
01:00 +25°C° 0 mm 2 m/s 681 mmHg 65%
02:00 +25°C° 0 mm 2 m/s 681 mmHg 66%
03:00 +24°C° 0 mm 1 m/s 681 mmHg 67%
04:00 +24°C° 0 mm 2 m/s 681 mmHg 70%
05:00 +24°C° 0 mm 2 m/s 682 mmHg 72%
06:00 +23°C° 0 mm 2 m/s 682 mmHg 74%
07:00 +24°C° 0 mm 2 m/s 683 mmHg 69%
08:00 +25°C° 0 mm 2 m/s 683 mmHg 65%
09:00 +26°C° 0 mm 2 m/s 684 mmHg 60%
10:00 +28°C° 0 mm 2 m/s 683 mmHg 53%
11:00 +30°C° 0 mm 2 m/s 683 mmHg 45%
12:00 +33°C° 0 mm 3 m/s 683 mmHg 38%
13:00 +34°C° 0 mm 3 m/s 682 mmHg 35%
14:00 +35°C° 0 mm 3 m/s 682 mmHg 32%
15:00 +36°C° 0 mm 4 m/s 681 mmHg 28%
16:00 +35°C° 0 mm 4 m/s 681 mmHg 29%
17:00 +35°C° 0 mm 4 m/s 681 mmHg 30%
18:00 +34°C° 0 mm 4 m/s 681 mmHg 31%
19:00 +32°C° 0 mm 4 m/s 681 mmHg 38%
20:00 +29°C° 0 mm 4 m/s 681 mmHg 45%
21:00 +27°C° 0 mm 4 m/s 681 mmHg 52%
22:00 +27°C° 0 mm 4 m/s 681 mmHg 57%
23:00 +26°C° 0 mm 3 m/s 681 mmHg 61%

16 Aprilie, Vineri

Timp Temperatura Precipitaţii Vânt Presiune Umiditate
00:00 +25°C° 0 mm 2 m/s 681 mmHg 66%
01:00 +25°C° 0 mm 2 m/s 681 mmHg 67%
02:00 +24°C° 0 mm 2 m/s 681 mmHg 68%
03:00 +24°C° 0 mm 2 m/s 680 mmHg 70%
04:00 +24°C° 0 mm 2 m/s 681 mmHg 73%
05:00 +23°C° 0 mm 2 m/s 681 mmHg 75%
06:00 +23°C° 0 mm 2 m/s 681 mmHg 78%
07:00 +24°C° 0 mm 3 m/s 682 mmHg 71%
08:00 +26°C° 0 mm 3 m/s 682 mmHg 64%
09:00 +27°C° 0 mm 4 m/s 683 mmHg 57%
10:00 +29°C° 0 mm 4 m/s 683 mmHg 49%
11:00 +30°C° 0 mm 4 m/s 683 mmHg 42%
12:00 +33°C° 0 mm 4 m/s 683 mmHg 35%
13:00 +34°C° 0 mm 4 m/s 682 mmHg 34%
14:00 +35°C° 0 mm 4 m/s 681 mmHg 32%
15:00 +35°C° 0 mm 4 m/s 681 mmHg 31%
16:00 +35°C° 0 mm 4 m/s 681 mmHg 33%
17:00 +34°C° 0 mm 5 m/s 680 mmHg 35%
18:00 +33°C° 0 mm 5 m/s 680 mmHg 37%
19:00 +30°C° 0 mm 5 m/s 680 mmHg 43%
20:00 +29°C° 0 mm 5 m/s 681 mmHg 50%
21:00 +27°C° 0 mm 5 m/s 681 mmHg 57%
22:00 +26°C° 0 mm 5 m/s 681 mmHg 60%
23:00 +26°C° 0 mm 4 m/s 681 mmHg 64%
Arată mai mult

Formular de consimțământ

Meteoprog și furnizorii noștri de servicii pot stoca și accesa date personale, precum cookies, identificatori de dispozitiv sau alte tehnologii similare pe dispozitivul dumneavoastră și procesa astfel de date pentru a personaliza conținutul și reclamele, dar și pentru a oferi caracteristici de social media și pentru a analiza traficul.

  • Stocarea și/sau accesarea informațiilor pe dispozitivul dumneavoastră

    Cookies, identificatori de dispozitiv sau alte informații pot fi stocate sau accesate pe dispozitiv în scopurile indicate mai sus.

  • Reclame și conținut personalizat, evaluarea reclamelor și a conținutului, informații despre audiențe și dezvoltarea produselor

    Reclamele și conținutul pot fi personalizate pe baza unui profil. Pot fi adăugate date suplimentare pentru a personaliza mai bine reclamele și conținutul. Performanța reclamelor și conținutului poate fi măsurată. Pot fi obținute informații despre utilizatorii care au văzut reclamele și conținutul. Aceste date pot fi utilizate pentru a dezvolta sau îmbunătăți experiența utilizatorilor, sistemele și software-ul.

Dând clic pe ‘Sunt de acord’, permiteți utilizarea cookie-urilor menționate, a identificatorilor de dispozitiv, balizelor web sau altor tehnologii similare. Setările pot fi modificate din browser-ul dispozitivului dumneavoastră.

În anumite scopuri, interesele legitime pot prima asupra consimțământului. Puteți citi mai multe informații în acest sens în Politica privind Confidențialitatea Datelor și Cookie.